EW3662 Weather Reports


Display with metric or nautical units.
time (UTC)temp
F
wind
direction
speed
MPH
gust
MPH
rain 1hr
in
rain 24hr
in
rain mn
in
humidity
%
barometer
mb
20260508192319 68 0 4.0 8.0 0.00 0.03 0.03 42 1014.5
20260508191319 69 0 5.0 9.0 0.00 0.03 0.03 41 1014.7
20260508190818 69 0 5.0 8.0 0.00 0.03 0.03 42 1014.9
20260508190318 70 0 4.0 9.0 0.00 0.03 0.03 43 1014.9
20260508190050 70 0 3.0 9.0 0.00 0.03 0.03 43 1015.0
20260508185319 70 0 4.0 9.0 0.00 0.03 0.03 41 1015.1
20260508184817 69 0 4.0 11.0 0.00 0.03 0.03 47 1015.1
20260508184317 69 0 4.0 11.0 0.00 0.03 0.03 40 1015.2
20260508183818 69 0 3.0 8.0 0.00 0.03 0.03 43 1015.2
20260508183548 69 0 3.0 10.0 0.00 0.03 0.03 48 1015.3
20260508183047 69 0 4.0 10.0 0.00 0.03 0.03 44 1015.3
20260508182314 69 0 4.0 9.0 0.00 0.03 0.03 43 1015.4
20260508181815 68 0 4.0 9.0 0.00 0.03 0.03 43 1015.4
20260508181545 67 0 3.0 8.0 0.00 0.03 0.03 49 1015.8
20260508181418 68 0 4.0 9.0 0.00 0.03 0.03 47 1015.6
20260508180313 67 0 2.0 7.0 0.00 0.03 0.03 47 1015.9
20260508175814 67 0 3.0 10.0 0.00 0.03 0.03 48 1015.9
20260508175315 67 0 4.0 10.0 0.00 0.03 0.03 49 1016.0
20260508174813 67 0 3.0 8.0 0.00 0.03 0.03 49 1016.1
20260508174313 66 0 2.0 6.0 0.00 0.03 0.03 47 1016.1
20260508174044 66 0 2.0 6.0 0.00 0.03 0.03 48 1016.2
20260508173318 65 0 3.0 8.0 0.00 0.03 0.03 50 1016.4
20260508173312 65 0 3.0 8.0 0.00 0.03 0.03 45 1016.2
20260508172313 65 0 3.0 8.0 0.00 0.03 0.03 52 1016.4
20260508171812 65 0 2.0 7.0 0.00 0.03 0.03 51 1016.5
20260508171312 65 0 1.0 5.0 0.00 0.03 0.03 52 1016.6
20260508170810 64 0 2.0 6.0 0.00 0.03 0.03 50 1016.6
20260508170543 64 0 2.0 6.0 0.00 0.03 0.03 52 1016.6
20260508165813 63 0 3.0 7.0 0.00 0.03 0.03 51 1016.7
20260508165311 63 0 3.0 7.0 0.00 0.03 0.03 55 1016.7
20260508164810 62 0 2.0 6.0 0.00 0.03 0.03 54 1016.8
20260508164540 62 0 3.0 7.0 0.00 0.03 0.03 54 1016.8
20260508163808 61 281 4.0 7.0 0.00 0.03 0.03 57 1016.8
20260508163310 61 0 4.0 7.0 0.00 0.03 0.03 57 1016.9
20260508163042 60 0 5.0 8.0 0.00 0.03 0.03 59 1016.9
20260508162309 60 0 5.0 8.0 0.00 0.03 0.03 59 1016.9
20260508161810 60 0 4.0 8.0 0.00 0.03 0.03 56 1016.9
20260508161309 60 0 4.0 8.0 0.00 0.03 0.03 58 1016.9
20260508160807 60 231 2.0 7.0 0.00 0.03 0.03 59 1016.9
20260508160306 59 0 2.0 5.0 0.00 0.03 0.03 61 1017.1
20260508155804 58 0 3.0 6.0 0.00 0.03 0.03 61 1017.1
20260508155306 58 0 4.0 8.0 0.00 0.03 0.03 63 1017.1
20260508154805 57 0 3.0 8.0 0.00 0.03 0.03 61 1017.1
20260508154304 57 227 2.0 5.0 0.00 0.03 0.03 62 1017.2
20260508153802 57 0 2.0 5.0 0.00 0.03 0.03 64 1017.2
20260508153532 56 0 3.0 6.0 0.00 0.03 0.03 65 1017.1
20260508152759 56 0 4.0 7.0 0.00 0.03 0.03 65 1017.2
20260508152258 55 0 3.0 7.0 0.00 0.03 0.03 67 1017.2
20260508151758 54 221 3.0 7.0 0.00 0.03 0.03 68 1017.2
20260508151305 53 210 2.0 6.0 0.00 0.03 0.03 70 1017.2
20260508151259 54 0 4.0 7.0 0.00 0.03 0.03 69 1017.3
20260508150257 53 0 2.0 4.0 0.00 0.03 0.03 72 1017.3
20260508145759 53 269 2.0 4.0 0.00 0.03 0.03 74 1017.2
20260508145258 52 0 2.0 5.0 0.00 0.03 0.03 76 1017.2
20260508144758 52 0 2.0 5.0 0.00 0.03 0.03 76 1017.3
20260508144259 51 284 2.0 4.0 0.00 0.03 0.03 79 1017.3
20260508143802 50 283 1.0 4.0 0.00 0.03 0.03 77 1017.2
20260508143757 51 284 2.0 4.0 0.00 0.03 0.03 79 1017.3
20260508142759 50 283 0.0 3.0 0.00 0.03 0.03 77 1017.2
20260508142259 50 284 0.0 0.0 0.00 0.03 0.03 79 1017.3
20260508142029 49 284 0.0 0.0 0.00 0.03 0.03 80 1017.3
20260508141256 49 283 0.0 4.0 0.00 0.03 0.03 82 1017.3
20260508140759 49 0 0.0 4.0 0.00 0.03 0.03 83 1017.2
20260508140254 49 284 1.0 4.0 0.00 0.03 0.03 84 1017.2
20260508135755 49 284 1.0 4.0 0.00 0.03 0.03 84 1017.1
20260508135254 49 0 1.0 4.0 0.00 0.03 0.03 85 1016.9
20260508134753 48 281 1.0 3.0 0.00 0.03 0.03 86 1016.9
20260508134525 48 0 0.0 3.0 0.00 0.03 0.03 87 1016.8
20260508133751 48 275 0.0 0.0 0.00 0.03 0.03 87 1016.7
20260508133250 47 0 0.0 0.0 0.00 0.03 0.03 86 1016.7
20260508133023 47 275 0.0 0.0 0.00 0.03 0.03 86 1016.6
20260508132251 47 275 0.0 0.0 0.00 0.03 0.03 85 1016.2
20260508131748 47 276 0.0 0.0 0.00 0.03 0.03 86 1016.1
20260508131252 47 276 0.0 0.0 0.00 0.03 0.03 87 1016.4
20260508131247 47 276 0.0 0.0 0.00 0.03 0.03 87 1016.5
20260508130246 47 277 0.0 0.0 0.01 0.03 0.03 87 1016.5
20260508130016 47 276 0.0 1.0 0.01 0.03 0.03 86 1016.5
20260508125246 47 276 0.0 1.0 0.01 0.03 0.03 86 1016.5
20260508124747 46 276 0.0 3.0 0.01 0.03 0.03 85 1016.5
20260508124246 46 276 1.0 3.0 0.01 0.03 0.03 85 1016.4
20260508123746 46 0 1.0 3.0 0.02 0.03 0.03 85 1016.4
20260508123247 46 0 1.0 4.0 0.02 0.03 0.03 85 1016.2
20260508122745 46 286 1.0 4.0 0.02 0.03 0.03 85 1016.5
20260508122246 46 286 1.0 5.0 0.02 0.03 0.03 85 1016.4
20260508121746 47 0 3.0 8.0 0.02 0.03 0.03 84 1016.5
20260508121247 47 0 5.0 10.0 0.02 0.03 0.03 84 1016.7
20260508120746 47 0 7.0 14.0 0.02 0.03 0.03 84 1016.7
20260508120245 47 0 9.0 16.0 0.01 0.02 0.02 84 1017.1
20260508115745 47 0 10.0 18.0 0.01 0.02 0.02 84 1017.2
20260508115247 47 0 12.0 22.0 0.01 0.02 0.02 83 1017.3
20260508114746 47 274 10.0 22.0 0.01 0.02 0.02 83 1017.5
20260508114247 47 0 8.0 18.0 0.01 0.02 0.02 84 1017.4
20260508113747 47 0 7.0 15.0 0.00 0.01 0.01 85 1017.4
20260508113247 47 0 4.0 11.0 0.00 0.01 0.01 86 1017.4
20260508112747 46 0 3.0 6.0 0.00 0.01 0.01 87 1017.1
20260508112517 46 0 3.0 5.0 0.00 0.01 0.01 86 1016.9
20260508111745 46 0 3.0 4.0 0.00 0.01 0.01 85 1016.7
20260508111248 46 0 3.0 4.0 0.00 0.01 0.01 84 1016.6
20260508110747 46 0 2.0 5.0 0.00 0.01 0.01 83 1016.2
20260508110246 46 0 3.0 5.0 0.00 0.01 0.01 82 1016.0
20260508105746 46 0 3.0 6.0 0.00 0.01 0.01 82 1016.0
20260508105517 46 0 3.0 6.0 0.00 0.01 0.01 82 1015.9
20260508104746 47 0 1.0 6.0 0.00 0.01 0.01 81 1015.9
20260508104246 47 0 1.0 4.0 0.00 0.01 0.01 82 1015.9
20260508104017 47 0 3.0 6.0 0.00 0.01 0.01 82 1015.9
20260508103245 47 0 3.0 7.0 0.01 0.01 0.01 81 1015.8
20260508102746 47 0 3.0 9.0 0.01 0.01 0.01 81 1015.8
20260508102523 47 0 5.0 11.0 0.01 0.01 0.01 81 1015.9
20260508102246 47 0 4.0 9.0 0.01 0.01 0.01 81 1015.9
20260508101248 47 0 4.0 11.0 0.01 0.01 0.01 81 1016.0
20260508100747 47 0 3.0 7.0 0.01 0.01 0.01 83 1015.9
20260508100247 47 0 3.0 6.0 0.01 0.01 0.01 84 1015.9
20260508100016 47 0 1.0 6.0 0.01 0.01 0.01 85 1015.9
20260508095246 47 0 0.0 2.0 0.01 0.01 0.01 86 1015.9
20260508094747 47 0 0.0 0.0 0.01 0.01 0.01 87 1015.9
20260508094246 47 0 0.0 2.0 0.01 0.01 0.01 87 1015.9
20260508093747 47 0 0.0 2.0 0.01 0.01 0.01 87 1015.8
20260508093246 47 0 1.0 5.0 0.00 0.00 0.00 87 1016.0
20260508092745 47 0 2.0 5.0 0.00 0.00 0.00 86 1015.8
20260508092247 47 0 1.0 5.0 0.00 0.00 0.00 86 1015.9
20260508091746 47 0 0.0 2.0 0.00 0.00 0.00 87 1015.9
20260508091519 47 0 1.0 3.0 0.00 0.00 0.00 86 1015.8
20260508090747 47 0 1.0 3.0 0.00 0.00 0.00 86 1015.8
20260508090247 47 0 0.0 0.0 0.00 0.00 0.00 86 1015.8
20260508085748 47 0 0.0 0.0 0.00 0.00 0.00 86 1015.7
20260508085248 47 0 0.0 0.0 0.00 0.00 0.00 86 1015.6
20260508084746 47 0 0.0 2.0 0.00 0.00 0.00 86 1015.3
20260508084245 47 0 1.0 4.0 0.00 0.00 0.00 85 1015.2
20260508083745 48 0 1.0 4.0 0.00 0.00 0.00 85 1015.2
20260508083243 48 0 0.0 3.0 0.00 0.00 0.00 85 1015.2
20260508082741 47 0 0.0 3.0 0.00 0.00 0.00 85 1015.2
20260508082242 47 0 0.0 2.0 0.00 0.00 0.00 85 1015.1
20260508081739 48 0 1.0 2.0 0.00 0.00 0.00 85 1015.1
20260508081237 48 0 0.0 2.0 0.00 0.00 0.00 84 1015.0
20260508080739 48 0 1.0 5.0 0.00 0.00 0.00 84 1015.0
20260508080236 48 0 2.0 5.0 0.00 0.00 0.00 84 1015.0
20260508075735 48 0 1.0 5.0 0.00 0.00 0.00 83 1015.1
20260508075235 49 0 2.0 5.0 0.00 0.00 0.00 83 1015.2
20260508074733 49 0 2.0 5.0 0.00 0.00 0.00 82 1015.3
20260508074504 49 0 1.0 5.0 0.00 0.00 0.00 83 1015.6
20260508073731 49 0 3.0 8.0 0.00 0.00 0.00 82 1015.8
20260508073501 49 0 4.0 8.0 0.00 0.00 0.00 82 1016.2
20260508072727 50 0 5.0 8.0 0.00 0.00 0.00 80 1016.2
20260508072228 50 0 3.0 8.0 0.00 0.00 0.00 80 1016.5
20260508071726 50 0 2.0 7.0 0.00 0.00 0.00 79 1016.4
20260508071227 50 294 1.0 4.0 0.00 0.00 0.00 78 1016.2
20260508070725 50 0 0.0 3.0 0.00 0.00 0.00 77 1016.0
20260508070221 50 0 2.0 7.0 0.00 0.00 0.00 77 1015.9
20260508065722 50 0 4.0 8.0 0.00 0.00 0.00 77 1016.2
20260508065220 50 0 5.0 9.0 0.00 0.00 0.00 76 1016.2
20260508064719 51 0 5.0 9.0 0.00 0.00 0.00 76 1016.4
20260508064215 51 0 5.0 8.0 0.00 0.00 0.00 76 1016.4
20260508063717 51 0 3.0 7.0 0.00 0.00 0.00 76 1016.1
20260508063445 51 0 1.0 6.0 0.00 0.00 0.00 76 1016.1
20260508062945 51 0 0.0 2.0 0.00 0.00 0.00 75 1015.8
20260508062214 51 0 1.0 3.0 0.00 0.00 0.00 75 1016.0
20260508061719 52 0 1.0 3.0 0.00 0.00 0.00 76 1015.9
20260508061715 51 0 2.0 3.0 0.00 0.00 0.00 76 1016.0
20260508060720 52 0 1.0 3.0 0.00 0.00 0.00 73 1015.7
20260508060715 52 0 1.0 3.0 0.00 0.00 0.00 74 1015.6
20260508055712 52 0 1.0 3.0 0.00 0.00 0.00 72 1015.7
20260508055209 52 0 1.0 3.0 0.00 0.00 0.00 72 1015.7
20260508054710 53 0 1.0 5.0 0.00 0.00 0.00 71 1015.8
20260508054209 53 0 1.0 5.0 0.00 0.00 0.00 71 1015.9
20260508053707 53 0 2.0 6.0 0.00 0.00 0.00 70 1016.0
20260508053205 53 0 1.0 6.0 0.00 0.00 0.00 70 1016.0
20260508052705 53 0 0.0 3.0 0.00 0.00 0.00 70 1016.0
20260508052205 53 0 1.0 6.0 0.00 0.00 0.00 70 1015.9
20260508051932 54 0 2.0 6.0 0.00 0.00 0.00 69 1015.8
20260508051434 54 0 2.0 5.0 0.00 0.00 0.00 69 1015.7
20260508050701 54 0 3.0 9.0 0.00 0.00 0.00 67 1015.6
20260508050208 54 0 4.0 7.0 0.00 0.00 0.00 67 1015.3
20260508050202 54 0 4.0 9.0 0.00 0.00 0.00 67 1015.4
20260508045202 54 0 5.0 11.0 0.00 0.00 0.00 65 1015.2
20260508044701 54 0 5.0 11.0 0.00 0.00 0.00 66 1015.1
20260508044202 54 0 5.0 11.0 0.00 0.00 0.00 67 1015.0
20260508043935 54 0 5.0 10.0 0.00 0.00 0.00 68 1014.9
20260508043202 54 0 4.0 9.0 0.00 0.00 0.00 70 1015.0
20260508042659 55 0 2.0 6.0 0.00 0.00 0.00 70 1014.9
20260508042200 55 0 2.0 5.0 0.00 0.00 0.00 69 1014.4
20260508041659 56 0 3.0 6.0 0.00 0.00 0.00 67 1014.1
20260508041201 56 0 3.0 11.0 0.00 0.00 0.00 66 1014.2
20260508040657 56 0 3.0 11.0 0.00 0.00 0.00 66 1014.4
20260508040158 56 0 5.0 15.0 0.00 0.00 0.00 62 1014.1
20260508035657 56 0 7.0 15.0 0.00 0.00 0.00 61 1014.4
20260508035158 56 0 7.0 13.0 0.00 0.00 0.00 60 1014.4
20260508034658 56 0 7.0 13.0 0.00 0.00 0.00 59 1014.2
20260508034158 56 0 8.0 13.0 0.00 0.00 0.00 59 1013.9
20260508033658 56 0 9.0 16.0 0.00 0.00 0.00 60 1013.8
20260508033158 56 0 9.0 16.0 0.00 0.00 0.00 60 1013.8
20260508032658 56 0 9.0 15.0 0.00 0.00 0.00 60 1013.4
20260508032428 56 0 10.0 18.0 0.00 0.00 0.00 61 1013.5
20260508031655 55 0 10.0 18.0 0.00 0.00 0.00 63 1013.5
20260508031155 55 0 10.0 17.0 0.00 0.00 0.00 65 1013.6
20260508030656 54 0 8.0 17.0 0.00 0.00 0.00 67 1013.7
20260508030156 54 0 6.0 13.0 0.00 0.00 0.00 67 1013.5
20260508025653 55 0 6.0 12.0 0.00 0.00 0.00 67 1013.5
20260508025154 55 0 7.0 13.0 0.00 0.00 0.00 65 1013.4
20260508024652 55 0 8.0 13.0 0.00 0.00 0.00 64 1013.1
20260508024153 55 0 8.0 14.0 0.00 0.00 0.00 63 1013.1
20260508023649 55 0 8.0 16.0 0.00 0.00 0.00 63 1013.2
20260508023150 55 0 8.0 16.0 0.00 0.00 0.00 64 1013.4
20260508022650 55 0 7.0 14.0 0.00 0.00 0.00 65 1013.4
20260508022150 55 0 7.0 14.0 0.00 0.00 0.00 66 1013.4
20260508021650 55 0 7.0 12.0 0.00 0.00 0.00 66 1013.4
20260508021151 55 0 7.0 14.0 0.00 0.00 0.00 65 1013.7
20260508020649 56 0 8.0 14.0 0.00 0.00 0.00 63 1013.5
20260508020150 56 0 9.0 19.0 0.00 0.00 0.00 62 1013.4
20260508015650 57 0 13.0 30.0 0.00 0.00 0.00 61 1013.2
20260508015150 58 0 14.0 32.0 0.00 0.00 0.00 58 1013.4
20260508014649 60 0 11.0 32.0 0.00 0.00 0.00 51 1013.4
20260508014147 60 0 8.0 15.0 0.00 0.00 0.00 48 1013.2
20260508013648 61 0 8.0 13.0 0.00 0.00 0.00 47 1013.0
20260508013147 61 0 8.0 14.0 0.00 0.00 0.00 46 1012.8
20260508012645 61 0 7.0 14.0 0.00 0.00 0.00 46 1012.6
20260508012147 61 0 6.0 12.0 0.00 0.00 0.00 46 1012.6
20260508011913 61 0 6.0 11.0 0.00 0.00 0.00 47 1012.6
20260508011143 62 0 6.0 11.0 0.00 0.00 0.00 46 1012.6
20260508010641 62 0 7.0 15.0 0.00 0.00 0.00 45 1012.4
20260508010141 63 0 8.0 15.0 0.00 0.00 0.00 44 1012.4
20260508005641 63 0 6.0 12.0 0.00 0.00 0.00 43 1012.3
20260508005141 62 0 5.0 12.0 0.00 0.00 0.00 44 1012.4
20260508004639 61 0 6.0 12.0 0.00 0.00 0.00 45 1012.6
20260508004138 62 0 8.0 18.0 0.00 0.00 0.00 45 1012.4
20260508003637 62 0 11.0 35.0 0.00 0.00 0.00 43 1012.4
20260508003137 62 0 12.0 35.0 0.00 0.00 0.00 39 1011.5
20260508002638 62 0 10.0 20.0 0.00 0.00 0.00 43 1012.3
20260508002137 62 0 9.0 20.0 0.00 0.00 0.00 42 1012.4
20260508001635 62 0 8.0 14.0 0.00 0.00 0.00 43 1012.6
20260508001136 63 0 9.0 17.0 0.00 0.00 0.00 42 1012.6
20260508000906 63 0 10.0 19.0 0.00 0.00 0.00 41 1012.6
20260508000136 63 0 11.0 20.0 0.00 0.00 0.00 40 1012.6
20260507235636 64 0 11.0 20.0 0.00 0.00 0.00 39 1012.4
20260507235136 64 0 12.0 27.0 0.00 0.00 0.00 38 1012.4
20260507234905 64 0 15.0 27.0 0.00 0.00 0.00 37 1012.4
20260507234135 65 0 14.0 28.0 0.00 0.00 0.00 36 1012.4
20260507233635 65 0 10.0 28.0 0.00 0.00 0.00 38 1012.3
20260507233135 66 0 8.0 14.0 0.00 0.00 0.00 40 1012.2
20260507232637 66 0 7.0 13.0 0.00 0.00 0.00 39 1012.1
20260507232135 66 0 7.0 13.0 0.00 0.00 0.00 38 1012.1
20260507231637 67 0 7.0 13.0 0.00 0.00 0.00 39 1012.0
20260507231409 67 0 7.0 12.0 0.00 0.00 0.00 37 1011.9
20260507230633 67 0 8.0 14.0 0.00 0.00 0.00 37 1011.7
20260507230133 67 0 10.0 15.0 0.00 0.00 0.00 33 1011.9
20260507225633 68 0 9.0 15.0 0.00 0.00 0.00 32 1011.6
20260507225133 68 0 9.0 17.0 0.00 0.00 0.00 31 1011.6
20260507224635 68 0 10.0 19.0 0.00 0.00 0.00 30 1011.7
20260507224133 68 0 11.0 20.0 0.00 0.00 0.00 31 1011.7
20260507223905 70 0 11.0 20.0 0.00 0.00 0.00 29 1011.6
20260507223133 71 0 12.0 19.0 0.00 0.00 0.00 28 1011.6
20260507222633 72 0 13.0 23.0 0.00 0.00 0.00 29 1011.6
20260507222140 72 0 13.0 21.0 0.00 0.00 0.00 29 1011.6
20260507222135 72 0 13.0 23.0 0.00 0.00 0.00 28 1011.6
20260507221133 72 0 12.0 22.0 0.00 0.00 0.00 30 1011.6
20260507220633 72 0 12.0 22.0 0.00 0.00 0.00 27 1011.6
20260507220134 72 0 13.0 21.0 0.00 0.00 0.00 28 1011.7
20260507215634 72 0 14.0 23.0 0.00 0.00 0.00 28 1011.7
20260507215133 71 0 13.0 23.0 0.00 0.00 0.00 27 1011.7
20260507214630 72 0 12.0 21.0 0.00 0.00 0.00 28 1011.9
20260507214130 71 0 11.0 21.0 0.00 0.00 0.00 28 1012.1
20260507213629 72 0 11.0 20.0 0.00 0.00 0.00 28 1012.0
20260507213131 72 0 10.0 22.0 0.00 0.00 0.00 28 1012.2
20260507212630 72 0 7.0 22.0 0.00 0.00 0.00 30 1012.2
20260507212130 71 0 9.0 22.0 0.00 0.00 0.00 29 1012.4
20260507211900 71 0 12.0 22.0 0.00 0.00 0.00 29 1012.4
20260507211129 71 0 13.0 26.0 0.00 0.00 0.00 29 1012.7
20260507210636 71 0 13.0 23.0 0.00 0.00 0.00 27 1012.8
20260507210632 71 0 13.0 26.0 0.00 0.00 0.00 29 1012.7
20260507205628 71 0 11.0 22.0 0.00 0.00 0.00 27 1012.8
20260507205128 72 0 9.0 17.0 0.00 0.00 0.00 30 1012.9
20260507204627 72 0 8.0 13.0 0.00 0.00 0.00 30 1012.9
20260507204128 71 0 8.0 13.0 0.00 0.00 0.00 31 1013.0
20260507203626 71 0 9.0 20.0 0.00 0.00 0.00 31 1013.0
20260507203126 71 0 9.0 20.0 0.00 0.00 0.00 33 1013.0
20260507202625 71 0 10.0 20.0 0.00 0.00 0.00 28 1013.1
20260507202126 71 0 11.0 20.0 0.00 0.00 0.00 32 1013.2
20260507201855 70 0 11.0 19.0 0.00 0.00 0.00 30 1013.2
20260507201125 71 0 12.0 19.0 0.00 0.00 0.00 31 1013.4
20260507200625 71 0 10.0 18.0 0.00 0.00 0.00 31 1013.4
20260507200355 71 0 11.0 20.0 0.00 0.00 0.00 32 1013.4
20260507195626 71 0 11.0 20.0 0.00 0.00 0.00 29 1013.5
20260507195126 71 0 8.0 15.0 0.00 0.00 0.00 30 1013.6
20260507194624 71 0 8.0 15.0 0.00 0.00 0.00 29 1013.6
20260507194124 71 0 9.0 15.0 0.00 0.01 0.00 33 1013.7
20260507193624 70 0 8.0 13.0 0.00 0.01 0.00 31 1013.7
20260507193355 70 0 8.0 18.0 0.00 0.01 0.00 29 1013.6
20260507192623 70 0 8.0 18.0 0.00 0.01 0.00 31 1013.7